EHI
8 10 12 12 11 12 13 13 13 13 12 8 5 4 6 7 8 10 15 21 21 17 14 11 5 3 4 7 8 7 4 4 5 7 8 7 6 4 2 4 6 6 6
11 12 14 13 12 13 14 13 12 12 10 6 4 4 5 7 7 9 12 16 16 14 13 11 8 5 5 7 8 8 6 7 7 8 8 9 9 6 4 5 6 6 6
13 14 14 15 15 15 14 11 9 9 8 5 3 4 6 6 6 7 8 9 9 9 10 11 10 7 6 7 7 7 7 7 8 9 10 11 12 9 6 6 5 5 5
15 14 15 16 16 16 13 9 7 8 7 5 5 7 8 8 7 6 5 4 5 6 8 9 8 8 8 7 6 5 6 6 8 9 11 12 12 9 6 4 3 2 2
17 16 15 15 14 15 12 8 8 9 9 7 7 9 10 10 9 7 5 4 5 6 6 6 6 6 6 5 4 5 6 7 9 11 12 12 12 9 5 2 1 0 0
18 16 13 13 14 14 11 10 10 10 10 8 6 7 10 10 9 8 5 4 4 5 6 6 4 3 3 2 2 3 4 5 8 10 11 12 12 9 4 1 0 0 0
16 13 11 13 14 14 13 12 12 11 9 8 5 5 6 6 6 7 5 3 2 3 6 7 5 3 1 0 1 2 2 3 5 8 9 9 9 8 5 2 0 0 0
13 10 10 12 13 14 14 13 12 11 9 8 6 5 4 3 3 4 4 2 1 2 4 6 6 5 3 2 1 1 1 1 3 5 7 8 8 7 5 3 2 1 1
10 10 10 11 11 13 13 13 12 11 9 9 7 5 3 2 2 2 2 1 1 2 3 3 4 4 5 5 4 2 1 1 1 4 7 9 10 8 6 4 4 3 3
11 11 11 10 10 12 12 12 10 9 8 7 6 4 2 2 2 1 1 1 1 2 2 2 3 4 5 7 6 3 0 0 0 3 7 10 10 9 7 6 6 5 5
10 11 11 11 11 11 11 10 9 8 6 4 3 2 1 1 1 0 0 0 1 1 1 2 4 6 7 7 6 2 0 0 0 1 5 8 9 9 9 7 6 5 5
9 9 9 10 10 10 10 10 8 7 5 4 3 2 1 1 0 0 0 0 0 0 1 3 5 6 7 6 3 1 0 0 0 0 2 5 6 8 8 7 5 4 4
9 8 8 8 9 9 9 9 8 7 6 5 4 3 2 1 1 0 0 0 0 0 2 3 4 5 5 4 2 0 0 0 0 0 0 1 3 4 6 5 4 3 3
8 8 8 7 7 7 7 7 6 6 7 6 4 3 3 2 2 1 0 0 0 0 1 2 3 5 4 3 1 0 0 0 0 0 0 0 1 2 3 3 2 2 2
7 8 9 8 7 6 6 5 5 5 6 6 4 2 3 2 1 1 0 0 0 0 0 1 3 5 5 3 1 0 0 0 0 0 0 0 0 1 2 1 0 1 1
7 9 9 9 8 7 7 6 5 5 6 6 4 3 3 2 1 1 0 1 1 0 0 0 1 3 3 2 1 1 0 0 0 0 0 0 0 0 0 0 0 0 0
9 9 10 9 8 7 8 8 6 6 6 6 4 4 3 3 2 1 1 1 1 0 0 0 1 2 2 1 0 0 0 0 0 0 0 0 0 0 0 0 0 0 0
10 10 10 9 8 8 9 8 7 6 6 6 6 5 4 3 3 2 2 2 1 1 1 0 0 1 2 2 1 0 0 0 0 0 0 0 0 0 0 0 0 0 0
10 10 10 9 9 8 8 8 7 7 7 7 7 6 5 4 4 3 3 3 3 2 2 1 0 1 1 1 1 0 0 0 0 0 0 0 0 0 0 0 0 0 0
10 10 10 10 9 8 7 7 7 7 7 7 7 7 6 6 5 4 3 3 3 4 3 2 1 0 0 0 0 0 0 0 0 0 0 0 0 0 0 0 0 0 0
10 10 11 10 8 7 6 6 6 6 7 7 7 6 6 5 4 3 3 3 4 5 4 3 2 1 0 0 0 0 0 0 0 0 0 0 0 0 0 0 0 0 0
10 11 11 9 7 5 4 4 4 5 6 6 6 6 6 5 4 3 3 3 3 4 4 3 3 2 1 0 0 0 0 0 0 0 0 0 0 0 0 0 0 0 0
10 10 10 8 6 4 3 2 2 4 5 6 6 6 6 5 4 4 3 2 2 2 2 3 3 3 2 1 1 0 0 0 0 0 0 0 0 0 0 0 0 0 0
10 10 9 8 7 5 3 1 1 3 4 6 6 6 6 6 5 5 5 4 3 3 2 2 2 2 2 2 1 0 0 0 0 0 0 0 0 0 0 0 0 0 0
10 9 8 9 8 6 4 2 1 2 4 5 6 6 6 6 5 5 5 6 6 5 4 2 1 1 1 1 1 0 0 0 0 0 0 0 0 0 0 0 0 0 0
11 9 8 8 8 6 4 1 1 2 4 5 6 6 6 6 6 4 5 6 6 6 5 2 1 0 0 0 0 0 0 0 0 0 0 0 0 0 0 0 0 0 0
Wind_Speed
1 1 1 1 2 2 2 2 2 2 3 3 3 3 2 2 1 2 3 9 10 9 9 9 8 7 7 7 7 7 7 7 8 7 7 7 7 7 7 7 7 7 7
1 1 2 1 1 1 1 1 1 1 2 2 2 2 2 1 2 3 3 5 9 9 9 9 9 8 8 8 7 7 7 8 8 8 7 7 7 7 7 8 8 7 7
1 1 1 1 1 1 1 1 1 1 1 2 2 2 2 1 2 2 3 3 5 8 9 9 9 9 9 8 8 8 8 8 8 8 8 7 7 8 8 8 8 8 8
1 1 1 0 1 1 1 1 0 1 1 1 2 2 1 2 3 3 3 4 4 4 6 9 9 9 9 9 9 9 8 8 9 8 8 8 8 8 8 8 8 8 8
1 0 0 0 1 1 0 1 0 1 1 2 2 1 1 2 2 4 4 4 4 4 4 7 10 10 10 10 10 9 9 10 10 10 9 9 9 9 9 9 8 8 8
0 0 0 0 1 0 1 1 0 1 1 2 2 1 1 1 1 3 4 3 3 4 5 5 5 7 10 11 10 10 10 10 10 10 10 10 10 10 10 10 9 9 8
1 0 1 0 1 0 0 0 0 1 1 1 0 1 1 1 1 2 2 3 4 3 4 5 5 4 4 10 10 11 11 11 10 10 10 10 10 10 10 11 10 10 9
0 0 1 0 1 1 0 0 1 1 1 1 1 0 1 1 1 2 2 2 3 3 3 4 4 4 3 3 6 10 10 10 10 10 10 9 9 10 11 11 12 11 11
1 1 1 0 1 1 1 1 1 1 1 1 1 1 1 1 1 1 2 1 1 1 2 2 4 4 4 3 4 7 9 8 9 9 9 9 9 10 11 11 11 12 12
2 1 1 1 1 1 0 1 0 1 1 1 1 1 1 1 1 1 2 1 1 1 1 2 2 2 3 2 3 5 8 8 8 9 9 9 9 10 10 11 10 11 11
1 1 1 1 1 1 1 1 1 1 1 1 1 1 0 1 1 1 2 2 1 1 2 2 1 2 3 3 2 4 7 8 8 8 8 8 9 9 10 10 9 10 10
1 2 2 1 0 1 1 0 1 1 1 0 1 1 1 1 1 2 2 2 2 2 2 1 1 1 2 2 3 5 7 7 8 8 8 8 7 8 9 10 10 10 10
1 1 2 1 0 1 0 1 0 1 1 1 1 1 1 1 1 1 1 1 1 1 1 2 2 2 2 2 2 5 6 6 7 8 8 8 8 8 8 9 10 10 9
2 2 2 1 0 0 0 0 1 1 1 1 1 1 1 1 1 1 1 1 2 2 1 2 2 2 1 2 3 5 4 6 6 6 7 8 8 8 8 8 9 9 8
2 3 2 1 1 1 1 0 1 0 0 0 1 1 1 1 2 1 1 1 1 2 2 1 0 1 1 2 3 3 3 6 6 6 6 7 7 8 8 8 8 8 8
1 2 1 1 0 0 0 0 1 0 0 0 0 1 1 2 2 1 1 1 1 1 2 1 1 0 0 1 3 2 3 6 7 7 7 7 7 8 8 8 8 8 8
1 1 1 1 1 0 0 0 1 0 0 1 1 1 1 2 2 2 1 1 1 1 1 1 0 0 0 1 1 2 2 3 4 8 8 8 8 8 8 9 9 9 9
1 1 1 1 1 0 0 0 1 1 1 1 1 1 2 2 2 2 2 2 1 1 1 2 1 1 1 2 2 3 3 3 3 7 9 9 9 9 9 9 9 9 9
2 1 1 1 0 0 1 1 1 1 1 1 1 1 2 2 2 2 2 2 1 1 1 1 2 1 1 1 1 2 3 2 4 5 8 9 9 9 9 9 9 10 10
3 2 2 2 1 1 1 2 1 0 1 1 1 1 2 1 1 2 2 2 1 2 2 2 2 2 1 1 1 2 2 2 3 3 4 5 8 10 10 10 10 10 11
3 2 2 2 2 1 1 1 2 1 1 1 1 1 1 1 1 1 2 1 2 2 2 2 2 2 1 1 1 2 2 2 2 2 2 2 3 4 5 8 9 10 10
2 1 1 0 1 1 2 2 2 2 1 1 2 2 1 0 1 2 2 2 2 3 3 2 2 2 2 2 1 2 2 2 3 2 2 3 2 2 2 3 7 10 11
2 2 2 2 1 1 1 2 3 3 2 2 2 1 2 2 1 2 2 3 4 6 5 3 3 4 3 3 2 3 2 3 4 3 2 3 2 2 2 3 6 9 10
2 2 2 2 2 2 2 2 3 4 3 3 2 2 2 1 3 3 3 2 3 3 4 4 3 4 4 3 3 3 3 4 4 3 2 3 3 3 3 2 5 8 10
2 2 2 2 3 3 3 3 2 3 3 3 2 2 2 1 2 3 2 3 3 3 4 5 5 5 5 6 4 2 3 3 4 4 2 3 3 3 3 3 4 8 9
3 3 3 3 3 3 5 4 3 3 3 3 2 3 3 3 3 3 3 3 4 4 4 4 4 5 5 5 6 4 3 3 4 4 2 2 2 2 3 2 2 3 4
Wind_Direction
210 200 218 222 221 215 210 225 216 210 233 247 254 250 241 213 170 146 160 168 168 172 178 186 196 206 210 211 212 208 203 206 213 209 207 209 207 204 202 200 199 197 198
203 216 221 220 250 240 231 227 232 226 232 242 251 252 246 226 174 176 167 173 177 182 185 191 198 206 212 214 213 213 209 207 209 206 207 207 206 206 205 203 199 199 200
204 225 240 227 256 267 259 245 227 232 238 248 250 250 248 220 211 187 184 174 180 191 195 198 201 207 213 216 216 216 216 212 209 207 206 206 205 208 205 204 202 203 201
217 226 224 266 293 284 249 244 226 248 266 263 250 247 232 219 209 203 199 198 182 181 197 203 203 207 212 216 219 219 220 221 218 213 209 205 208 210 206 205 205 207 205
194 242 246 109 276 283 295 282 23 291 275 276 259 225 210 214 212 218 211 208 189 174 177 198 207 208 212 216 220 224 224 222 220 218 216 212 211 208 209 205 205 208 207
3 21 184 123 284 311 314 335 342 283 260 259 280 302 238 221 215 222 210 201 199 191 184 189 197 210 212 213 217 223 226 225 221 221 222 220 215 210 208 205 206 207 210
67 168 5 16 350 332 278 205 235 257 269 261 6 310 307 221 210 222 211 201 203 200 191 188 194 195 206 215 214 218 223 225 222 222 225 223 219 213 211 209 208 211 215
37 146 98 357 56 291 191 254 260 257 255 219 182 156 253 254 299 246 200 212 206 194 199 201 192 191 193 187 205 216 219 221 220 220 223 222 218 215 213 213 214 216 218
129 46 76 47 5 268 200 240 240 256 257 245 171 150 202 231 302 284 273 226 183 190 201 194 193 189 195 182 182 207 209 211 215 216 220 220 219 217 217 219 221 222 223
120 106 46 41 353 319 27 274 36 286 246 235 196 192 177 144 199 286 279 273 220 235 229 235 217 184 186 179 179 190 199 205 211 216 218 218 218 218 220 222 223 224 225
144 113 85 34 354 352 41 320 327 278 255 248 245 240 209 208 216 222 256 264 268 247 234 231 212 200 181 175 179 184 194 203 207 210 214 218 219 222 223 224 225 227 228
131 108 108 74 333 359 43 6 352 275 299 317 305 269 220 220 230 227 228 233 244 247 231 242 231 203 197 176 188 185 185 195 200 203 206 213 220 225 227 229 230 230 231
122 112 102 98 17 5 38 92 300 289 262 259 254 270 268 270 261 246 241 253 259 261 227 226 226 208 202 169 175 171 177 188 193 196 201 207 216 222 226 229 231 231 232
105 107 105 109 77 343 334 127 239 241 208 235 266 302 299 286 281 254 232 242 258 258 235 229 192 182 181 164 178 176 178 179 183 193 201 207 214 218 222 225 228 230 229
105 96 81 71 27 6 356 327 265 267 336 208 267 282 281 288 286 288 276 237 230 262 273 271 242 189 177 141 158 173 159 174 182 192 201 209 215 217 219 221 222 222 223
80 99 105 98 83 32 330 297 286 334 349 357 294 307 308 295 299 299 287 286 246 236 264 272 260 222 141 202 174 179 175 172 187 197 204 210 215 217 218 220 221 221 222
129 129 150 162 181 189 270 299 283 323 319 321 316 321 298 293 307 305 310 308 292 253 263 277 230 264 257 267 202 199 188 189 197 205 209 213 215 217 219 221 220 221 222
171 185 172 194 229 189 125 293 302 332 303 288 297 308 305 303 311 326 333 322 315 294 272 286 285 255 239 226 217 221 227 217 206 208 210 214 217 219 221 223 222 222 221
176 193 179 185 259 342 340 318 306 332 332 322 327 323 324 338 336 336 321 315 308 299 256 269 279 267 255 254 240 246 245 246 239 220 212 215 218 220 223 223 225 225 222
196 197 201 201 205 217 291 306 297 278 312 328 355 339 325 343 338 321 305 306 306 304 285 268 268 261 251 248 219 258 265 251 250 243 229 216 219 220 224 225 227 227 224
210 196 212 216 217 212 266 312 300 270 301 320 329 330 343 35 17 320 308 329 310 285 280 273 275 274 266 262 253 264 274 276 269 250 249 238 219 218 219 227 229 230 229
215 205 211 215 294 319 14 359 330 313 302 296 307 318 292 187 238 241 258 272 270 269 280 282 281 276 273 266 262 265 278 286 282 269 263 268 242 235 224 213 216 214 220
211 214 211 183 166 93 347 302 311 298 282 276 277 294 303 319 324 289 258 251 256 252 240 246 267 273 279 275 271 275 273 271 271 269 274 279 269 259 254 254 217 209 211
214 209 215 195 172 169 200 253 292 269 265 267 261 249 254 279 309 315 297 285 273 268 241 233 242 259 269 276 268 259 261 269 271 268 246 263 267 263 267 255 226 216 212
222 214 209 204 190 176 200 225 259 260 246 251 249 256 258 256 290 302 290 287 287 287 273 259 245 252 259 267 271 278 268 268 279 280 255 244 258 268 264 245 237 227 220
228 230 217 211 204 185 197 211 225 260 263 259 236 226 232 242 244 250 260 278 280 284 295 291 269 264 254 250 241 230 243 251 266 275 268 260 265 273 275 259 240 227 226